Date String (YYYY-MM-DD hh:mm:ss) UTC,Instrument flags,Ambient pressure (hPa),Sample flow (lpm),Bypass flow (lpm),Sample temperature (°C),Ambient temperature (°C),ASC tube jacket temperature (°C),LED temperature (°C),Box temperature (°C),Sample RH (%),Span deviation,Mass concentration (μg/m³),Mass concentration (μg/m³),Mass concentration (μg/m³)
DateTimeUTC,F1_M11,P_M11,Q1_M11,Q2_M11,T1_M11,T2_M11,T3_M11,T4_M11,T5_M11,U1_M11,ZSPAN_M11,X0_M11,X2_M11,X1_M11
2022-08-28 22:00:00,,0821.7,5.02,0.00,29.2,26.6,00.0,37.8,31.0,17.2,0000.0,0009.21,0003.86,0003.19
2022-08-28 22:01:00,,0821.7,4.98,0.00,29.2,26.3,00.0,37.8,31.0,17.3,0000.0,0009.32,0003.88,0003.20
2022-08-28 22:02:00,,0821.7,5.01,0.00,29.1,26.6,00.0,37.8,30.9,17.0,0000.0,0009.12,0003.82,0003.19
2022-08-28 22:03:00,,0821.8,5.00,0.00,29.1,26.9,00.0,37.8,30.9,17.0,0000.0,0009.35,0003.81,0003.18
2022-08-28 22:04:00,,0821.8,4.99,0.00,29.1,27.2,00.0,37.7,30.9,17.2,0000.0,0009.48,0003.81,0003.19
2022-08-28 22:05:00,,0821.8,5.01,0.00,29.1,27.5,00.0,37.7,30.9,17.3,0000.0,0009.33,0003.81,0003.18
2022-08-28 22:06:00,,0821.8,4.99,0.00,29.2,27.8,00.0,37.8,31.0,17.3,0000.0,0008.75,0003.81,0003.18
2022-08-28 22:07:00,,0821.8,5.00,0.00,29.2,28.0,00.0,37.8,31.1,17.5,0000.0,0008.22,0003.80,0003.17
2022-08-28 22:08:00,,0821.8,5.00,0.00,29.2,27.7,00.0,37.8,31.1,17.2,0000.0,0007.62,0003.78,0003.18
2022-08-28 22:09:00,,0821.9,5.01,0.00,29.2,26.5,00.0,37.8,31.0,17.4,0000.0,0008.03,0003.78,0003.18
2022-08-28 22:10:00,,0821.9,4.99,0.00,29.2,26.2,00.0,37.8,31.0,17.6,0000.0,0008.43,0003.79,0003.17
2022-08-28 22:11:00,,0822.0,5.00,0.00,29.1,26.5,00.0,37.8,31.0,17.4,0000.0,0008.53,0003.81,0003.18
2022-08-28 22:12:00,,0821.9,5.00,0.00,29.1,26.8,00.0,37.7,30.8,17.7,0000.0,0008.94,0003.78,0003.16
2022-08-28 22:13:00,,0822.0,5.00,0.00,29.1,27.2,00.0,37.7,30.9,17.8,0000.0,0008.99,0003.79,0003.15
2022-08-28 22:14:00,,0822.1,5.01,0.00,29.1,27.4,00.0,37.7,30.9,17.8,0000.0,0008.71,0003.79,0003.15
2022-08-28 22:15:00,,0821.9,4.99,0.00,29.1,27.7,00.0,37.7,31.0,17.8,0000.0,0008.52,0003.78,0003.14
2022-08-28 22:16:00,,0821.9,5.01,0.00,29.2,27.9,00.0,37.8,31.1,17.3,0000.0,0008.60,0003.80,0003.15
2022-08-28 22:17:00,,0821.9,5.00,0.00,29.2,28.1,00.0,37.8,31.2,17.0,0000.0,0008.71,0003.78,0003.15
2022-08-28 22:18:00,,0822.0,4.99,0.00,29.3,28.0,00.0,37.8,31.2,16.8,0000.0,0008.84,0003.80,0003.16
2022-08-28 22:19:00,,0822.0,4.99,0.00,29.3,26.8,00.0,37.8,31.1,16.5,0000.0,0008.96,0003.79,0003.16
2022-08-28 22:20:00,,0821.9,5.01,0.00,29.2,26.3,00.0,37.8,31.0,16.9,0000.0,0008.52,0003.76,0003.16
2022-08-28 22:21:00,,0821.9,4.99,0.00,29.2,26.6,00.0,37.8,31.0,17.3,0000.0,0007.94,0003.73,0003.17
2022-08-28 22:22:00,,0822.0,5.00,0.00,29.1,26.8,00.0,37.8,30.9,17.4,0000.0,0007.93,0003.71,0003.17
2022-08-28 22:23:00,,0822.0,5.00,0.00,29.1,27.2,00.0,37.8,30.9,17.7,0000.0,0007.39,0003.70,0003.18
2022-08-28 22:24:00,,0822.1,4.99,0.00,29.1,27.5,00.0,37.8,31.0,17.6,0000.0,0007.51,0003.73,0003.19
2022-08-28 22:25:00,,0822.1,5.01,0.00,29.2,27.7,00.0,37.8,31.1,18.0,0000.0,0007.62,0003.75,0003.20
2022-08-28 22:26:00,,0822.1,4.99,0.00,29.2,28.0,00.0,37.8,31.1,18.0,0000.0,0007.57,0003.75,0003.22
2022-08-28 22:27:00,,0822.1,5.00,0.00,29.3,28.1,00.0,37.8,31.2,17.9,0000.0,0007.56,0003.75,0003.22
2022-08-28 22:28:00,,0821.9,5.01,0.00,29.3,27.6,00.0,37.9,31.2,17.8,0000.0,0007.42,0003.74,0003.23
2022-08-28 22:29:00,,0822.0,5.01,0.00,29.2,26.4,00.0,37.8,31.0,18.0,0000.0,0007.23,0003.73,0003.24
2022-08-28 22:30:00,,0822.1,5.00,0.00,29.2,26.4,00.0,37.8,31.0,18.0,0000.0,0007.63,0003.77,0003.26
2022-08-28 22:31:00,,0822.1,5.01,0.00,29.2,26.7,00.0,37.8,30.9,18.1,0000.0,0008.36,0003.80,0003.27
2022-08-28 22:32:00,,0822.1,5.00,0.00,29.1,27.0,00.0,37.8,30.9,18.4,0000.0,0008.42,0003.79,0003.26
2022-08-28 22:33:00,,0822.1,4.98,0.00,29.1,27.3,00.0,37.8,30.9,18.6,0000.0,0008.45,0003.81,0003.25
2022-08-28 22:34:00,,0822.2,5.01,0.00,29.2,27.6,00.0,37.8,31.0,18.7,0000.0,0008.46,0003.78,0003.24
2022-08-28 22:35:00,,0822.2,4.99,0.00,29.2,27.8,00.0,37.8,31.1,19.1,0000.0,0008.69,0003.80,0003.24
2022-08-28 22:36:00,,0822.2,5.01,0.00,29.2,28.0,00.0,37.8,31.1,19.5,0000.0,0008.74,0003.82,0003.24
2022-08-28 22:37:00,,0822.3,4.99,0.00,29.3,28.0,00.0,37.9,31.2,19.6,0000.0,0008.93,0003.85,0003.22
2022-08-28 22:38:00,,0822.3,5.00,0.00,29.3,27.0,00.0,37.9,31.1,19.8,0000.0,0008.91,0003.83,0003.22
2022-08-28 22:39:00,,0822.3,5.01,0.00,29.2,26.3,00.0,37.8,31.0,19.9,0000.0,0008.88,0003.83,0003.22
2022-08-28 22:40:00,,0822.3,4.99,0.00,29.2,26.5,00.0,37.8,31.0,19.8,0000.0,0008.86,0003.81,0003.20
2022-08-28 22:41:00,,0822.4,4.99,0.00,29.1,26.7,00.0,37.8,30.9,19.8,0000.0,0008.61,0003.80,0003.18
2022-08-28 22:42:00,,0822.4,5.01,0.00,29.1,27.0,00.0,37.8,30.8,20.0,0000.0,0007.91,0003.76,0003.16
2022-08-28 22:43:00,,0822.4,4.99,0.00,29.1,27.3,00.0,37.8,30.9,20.0,0000.0,0007.79,0003.78,0003.16
2022-08-28 22:44:00,,0822.4,5.00,0.00,29.1,27.6,00.0,37.8,31.0,20.2,0000.0,0007.72,0003.72,0003.15
2022-08-28 22:45:00,,0822.5,5.00,0.00,29.2,27.8,00.0,37.8,31.1,19.9,0000.0,0008.57,0003.74,0003.15
2022-08-28 22:46:00,,0822.4,5.01,0.00,29.2,27.9,00.0,37.8,31.1,19.6,0000.0,0008.64,0003.71,0003.13
2022-08-28 22:47:00,,0822.5,5.00,0.00,29.2,26.9,00.0,37.8,31.0,19.1,0000.0,0009.36,0003.70,0003.07
2022-08-28 22:48:00,,0822.4,4.99,0.00,29.1,26.0,00.0,37.8,30.9,18.9,0000.0,0009.29,0003.61,0003.00
2022-08-28 22:49:00,,0822.4,5.01,0.00,29.1,26.2,00.0,37.8,30.9,19.0,0000.0,0009.16,0003.55,0002.92
2022-08-28 22:50:00,,0822.4,5.00,0.00,29.0,26.5,00.0,37.7,30.8,18.8,0000.0,0009.03,0003.48,0002.83
2022-08-28 22:51:00,,0822.4,4.99,0.00,29.0,26.8,00.0,37.7,30.8,18.9,0000.0,0009.09,0003.46,0002.76
2022-08-28 22:52:00,,0822.5,5.00,0.00,29.0,27.1,00.0,37.7,30.8,18.9,0000.0,0008.89,0003.39,0002.67
2022-08-28 22:53:00,,0822.5,4.99,0.00,29.0,27.4,00.0,37.7,30.9,18.8,0000.0,0008.75,0003.32,0002.59
2022-08-28 22:54:00,,0822.5,5.00,0.00,29.1,27.7,00.0,37.7,31.0,18.8,0000.0,0008.63,0003.26,0002.51
2022-08-28 22:55:00,,0822.5,4.99,0.00,29.1,27.9,00.0,37.7,31.0,18.8,0000.0,0008.58,0003.23,0002.44
2022-08-28 22:56:00,,0822.5,5.00,0.00,29.1,28.1,00.0,37.8,31.1,18.9,0000.0,0007.67,0003.20,0002.37
2022-08-28 22:57:00,,0822.4,5.00,0.00,29.2,27.8,00.0,37.8,31.1,18.7,0000.0,0007.15,0003.17,0002.34
2022-08-28 22:58:00,,0822.4,5.01,0.00,29.2,26.6,00.0,37.8,31.0,18.6,0000.0,0005.93,0003.13,0002.31
2022-08-28 22:59:00,,0822.4,5.00,0.00,29.1,26.1,00.0,37.7,30.9,18.7,0000.0,0005.57,0003.12,0002.30
